Regional Weather Roundup
Issued by NWS Sterling, VA

Home | Current Version | Previous Version | Graphics & Text | Print | Product List | Glossary On
Versions: 1 2 3 4 5 6 7 8 9 10 11 12 13 14 15 16 17 18 19 20 21 22 23 24 25 26 27 28 29 30 31 32 33 34 35 36 37 38 39 40 41 42 43 44 45 46 47 48 49 50
000
ASUS41 KLWX 282210
RWRLWX

REGIONAL WEATHER ROUNDUP
NATIONAL WEATHER SERVICE BALTIMORE MD/WASHINGTON DC
600 PM EDT SAT MAR 28 2015

Note: "FAIR" indicates few or no clouds below 12,000 feet
with no significant weather and/or obstructions to visibility.
 TC=TEMPERATURE CELSIUS

 * =Non NWS site. Station does not report precipitation (e.g. rain,
    snow, etc.), thunder, or fog.

DCZ001-MDZ009-015-VAZ040>042-051-053>054-282300-
WASHINGTON METRO

CITY           SKY/WX    TMP DP  RH WIND       PRES   REMARKS
WASHINGTON NAT PTSUNNY   36  10  34 NW14G23   30.10R WCI  27
DULLES         PTSUNNY   32   9  38 NW22G28   30.09R WCI  19
ANDREWS AFB    MOSUNNY   33  10  37 NW16G25   30.06R WCI  23
FT BELVOIR     PTSUNNY   35   8  33 NW21      30.10R WCI  23
QUANTICO       MOSUNNY   36   8  31 NW16G25   30.13R WCI  26
COLLEGE PARK*  PTSUNNY   34  10  37 NW13G18   30.08R WCI  25
LEESBURG*      CLOUDY    32  14  47 NW20      30.11R WCI  20
MANASSAS*      PTSUNNY   36   9  32 NW21G26   30.10R WCI  24
GAITHERSBURG*  CLOUDY    30   9  40 NW20G33   30.10R WCI  18

$$

MDZ006>007-011-014-282300-
BALTIMORE METRO

CITY           SKY/WX    TMP DP  RH WIND       PRES   REMARKS
BWI AIRPORT    FLURRIES  33  12  41 N17G29    30.06R WCI  22
MD SCIENCE CTR   N/A     34   9  35 MISG      30.05S
MARTIN STATE   PTSUNNY   36  16  44 W20G30    30.07R WCI  25
ANNAPOLIS      CLOUDY    33  15  47 NW13G22   30.07R WCI  24

$$

MDZ012-015-019>023-282300-
MARYLAND EASTERN SHORE

CITY           SKY/WX    TMP DP  RH WIND       PRES   REMARKS
OCEAN CITY     FLURRIES  33  22  63 NW17G24   30.03R WCI  22
SALISBURY      CLOUDY    33  18  53 NW16G25   30.04R WCI  23
BAY BRIDGE AP*   N/A     34  16  47 NW21G26   30.06R WCI  22
CAMBRIDGE*     MOSUNNY   36  16  44 NW15G25   30.05R WCI  26
EASTON*        MOSUNNY   34  23  64 N17G29    30.10  WCI  23

$$

MDZ017>025-282300-
SOUTHERN MARYLAND

CITY           SKY/WX    TMP DP  RH WIND       PRES   REMARKS
PATUXENT RIVER PTSUNNY   34  10  37 NW17G31   30.07R WCI  23
ST INIGOES     PTSUNNY   36   9  32 W14G26    30.07R WCI  27
LEONARDTOWN*   CLOUDY    34   9  35 W12       30.09R WCI  25

$$

MDZ003>005-282300-
NORTH CENTRAL MARYLAND

CITY           SKY/WX    TMP DP  RH WIND       PRES   REMARKS
FREDERICK*     PTSUNNY   34   1  25 NW20G28   30.12  WCI  22
HAGERSTOWN APT PTSUNNY   29   9  43 NW21G29   30.09R WCI  16
WESTMINSTER*   PTSUNNY   30   5  34 NW15G24   30.04R WCI  19

$$

MDZ501>502-282300-
WESTERN MARYLAND

CITY           SKY/WX    TMP DP  RH WIND       PRES   REMARKS
OAKLAND*       CLOUDY    19  10  68 W9G22     29.99R WCI   9
CUMBERLAND*    PTSUNNY   30   5  34 NW10G29   30.17R WCI  21

$$

VAZ025>031-282300-
SHENANDOAH VALLEY

CITY           SKY/WX    TMP DP  RH WIND       PRES   REMARKS
WINCHESTER*    PTSUNNY   32   1  27 W23G29    30.10R WCI  19
FRONT ROYAL*   FAIR      32   7  34 NW13G20   30.10R WCI  22
LURAY*         FAIR      34  10  37 NW7G22    30.10R
NEW MARKET*    FAIR      32   7  35 NW6       30.10R
STAUNTON*      PTSUNNY   32   5  32 NW17G24   30.11R WCI  21
WAYNESBORO*    FAIR      29   4  34 NW9G20    30.08R WCI  21

$$

WVZ021-048>050-054>055-282300-
EASTERN WEST VIRGINIA PANHANDLE

CITY           SKY/WX    TMP DP  RH WIND       PRES   REMARKS
MARTINSBURG    CLOUDY    33   8  35 NW21G31   30.11R WCI  21
PETERSBURG*    PTSUNNY   31   6  35 NW17G26   30.14R WCI  19

$$

VAZ036>039-050-282300-
CENTRAL FOOTHILLS

CITY           SKY/WX    TMP DP  RH WIND       PRES   REMARKS
CHARLOTTESVILL MOSUNNY   34   4  28 NW9G18    30.11R WCI  27
CULPEPER*      MOSUNNY   34   5  29 NW9       30.12R WCI  26
ORANGE*        SUNNY     34   9  35 W12G20    30.13R WCI  25
GORDONSVILLE*  FAIR      33   5  31 N6        30.11R
WARRENTON*     FAIR      34  15  46 NW16      30.11R WCI  24

$$

VAZ055>057-282300-
NORTH AND CENTRAL PIEDMONT

CITY           SKY/WX    TMP DP  RH WIND       PRES   REMARKS
FREDERICKSBRG* MOSUNNY   36   8  31 W22G29    30.11R WCI  24
STAFFORD*      PTSUNNY   32   5  31 NW17G24   30.16R WCI  21

$$

NCZ024-NYZ072-PAZ021-071-VAZ022-071-282300-
OTHER REGIONAL OBSERVATIONS

CITY           SKY/WX    TMP DP  RH WIND       PRES   REMARKS
NEW YORK CITY  CLOUDY    37  23  56 N8        29.92R
PHILADELPHIA   CLOUDY    38  10  31 NW20      29.98R WCI  28
PITTSBURGH     MOSUNNY   29   5  36 NW21      30.16R WCI  16
ROANOKE        SUNNY     36   6  28 N17G25    30.12R WCI  26
RICHMOND       PTSUNNY   40  10  29 NW17G24   30.07R
RALEIGH        MOSUNNY   46  11  24 VRB7G21   30.07R

$$

ANZ530>537-282300-
MARINE OBSERVATIONS

STATION/POSITION TIME  TEMP    WIND        PRES
                       AIR SEA DIR/SP/G
                 (UTC) (F)     (DEG/KT/KT) (MB)
THOMAS PT LIGHT  2200                        N/A
BALT KEY BRIDGE  2100   33     280/ 21/ 24 1016.6R
COVE POINT       2100   33     330/ 16/ 21 1016.9R
LEWISETTA        2100   36 46              1017.7R
SOLOMONS ISLAND  2100      44                N/A
PINEY POINT      2100          320/ 25/ 28   N/A

$$




USA.gov is the U.S. government's official web portal to all federal, state and local government web resources and services.